Location: Barrio de Buenos Aires
(28.4500°N, 16.2667°W)
Time: 21:57:01
(UTC+00:00)

NOAA 15 - Pass Details

Date: 24 January 2020
Orbit: 798 x 812 km, 98.7° (Epoch: 20 February)

Event Time Altitude Azimuth Distance (km) Brightness Sun altitude
Rises 19:38:23 0° 162° (SSE) 3,292 7.7 -13.5°
Reaches altitude 10° 19:40:43 10° 160° (SSE) 2,366 7.0 -14.0°
Maximum altitude 19:45:55 75° 76° (ENE) 831 4.5 -15.1°
Drops below altitude 10° 19:51:11 10° 351° (N) 2,386 7.0 -16.2°
Sets 19:53:32 0° 350° (N) 3,322 7.8 -16.7°
